[[{"header":{"parameterUnit":"m.s-1","parameterCategory":1,"la1":30.2991,"la2":30.254,"lo1":-89.0895,"lo2":-89.0444,"dy":0.0017,"dx":0.0017,"nx":28,"ny":28,"refTime":"2023-08-08T09:00:00:Z","depth":0,"parameterNumber":2,"parameterNumberName":"U-component_of_WINDS"},"data":[0,0,0,0,0,0,0,0,0,0,0,0,0,0,0,0,0,0,0,0,0,0,0,0,0,0,0,0,0,0,0,0,0,0,0,0,0,0,0,0,0,0,0,0,0,0,0,0,0,0,0,0,0,0,0,0,0,0,0.7009,0.7011,0,0.7193,0.7195,0.7197,0.7267,0.7267,0.7266,0.7266,0.7455,0.746,0.7465,0,0,0,0,0,0,0,0,0,0,0,0,0,0.6717,0.6722,0.7008,0.7011,0.7013,0.7192,0.7195,0.7197,0.7267,0.7267,0.7266,0.7266,0.7453,0.7459,0.7466,0,0,0,0,0,0,0,0,0,0,0,0,0,0.6866,0.6723,0.7008,0.707,0.7077,0.7192,0.7195,0.7198,0.7268,0.7267,0.7266,0.7265,0.7451,0.7459,0.7467,0.7534,0,0,0.7492,0.7496,0,0,0,0,0,0,0,0,0.6858,0.6877,0.7058,0.7066,0.7074,0.7206,0.7161,0.7311,0.7268,0.7195,0.7266,0.7265,0.7373,0.7387,0.7424,0.7543,0.7551,0.7493,0.7498,0.7502,0.7504,0,0,0,0,0,0,0,0.6847,0.6869,0.7081,0.7061,0.707,0.7088,0.7108,0.719,0.7286,0.7201,0.7207,0.7228,0.7377,0.7415,0.7429,0.7554,0.7493,0.75,0.7505,0.7508,0.7738,0.7739,0,0,0,0,0,0,0.6827,0.686,0.7076,0.7087,0.6962,0.7094,0.7116,0.7165,0.7285,0.7303,0.7228,0.723,0.7402,0.7419,0.7435,0.7522,0.7501,0.7509,0.7514,0.7737,0.7738,0.7739,0,0,0,0,0,0,0.682,0.6845,0.7068,0.6975,0.7005,0.71,0.7153,0.7169,0.7207,0.7306,0.7323,0.725,0.7402,0.7424,0.7509,0.753,0.7513,0.7521,0.7735,0.7737,0.7739,0.7696,0,0,0,0,0,0,0.6811,0.6842,0.6869,0.6975,0.701,0.7139,0.7154,0.7173,0.7222,0.7226,0.7331,0.7348,0.7403,0.7496,0.7517,0.7541,0.7527,0.7734,0.7736,0.7738,0.7696,0.7696,0.7696,0,0,0,0,0,0.6801,0.685,0.687,0.6896,0.7045,0.714,0.7159,0.7222,0.7223,0.725,0.7314,0.7344,0.7524,0.7504,0.7529,0.7555,0.7733,0.7735,0.7738,0.7696,0.7696,0.7696,0,0,0,0,0,0,0.6744,0.6865,0.6889,0.6974,0.7046,0.7151,0.7188,0.722,0.7293,0.7294,0.7369,0.7392,0.7471,0.7522,0.7498,0.7627,0.7631,0.7638,0.759,0.7591,0.7591,0.7578,0.7534,0,0,0,0,0,0.6741,0.6808,0.691,0.6975,0.701,0.7092,0.7136,0.7178,0.7256,0.7287,0.7356,0.743,0.7504,0.755,0.7623,0.7704,0.7728,0.7734,0.7734,0.7733,0.7739,0.7785,0.7789,0.7747,0.7747,0.7747,0,0,0.6736,0.681,0.6848,0.6966,0.7026,0.7094,0.7118,0.7188,0.7239,0.7297,0.7382,0.7435,0.7523,0.7606,0.7646,0.7651,0.7756,0.7736,0.7735,0.7742,0.7788,0.7792,0.7795,0.7749,0.7749,0.7749,0,0,0.6762,0.6825,0.6886,0.6946,0.7038,0.7092,0.7107,0.7208,0.7245,0.7332,0.7377,0.7438,0.7563,0.7623,0.767,0.7718,0.7749,0.774,0.774,0.7784,0.7787,0.7791,0.7808,0.7813,0.7745,0.7745,0.7745,0,0.6744,0.6848,0.6913,0.6981,0.7031,0.7087,0.7149,0.7205,0.7315,0.7349,0.7352,0.751,0.7573,0.7671,0.7682,0.7718,0.7737,0.7728,0.7782,0.7786,0.779,0.7807,0.7813,0.7743,0.7743,0.7744,0.7744,0,0.6821,0.6892,0.693,0.7036,0.709,0.7155,0.723,0.7277,0.7314,0.7368,0.7455,0.7532,0.7622,0.7648,0.7685,0.7751,0.7751,0.7767,0.7773,0.7791,0.7808,0.7815,0.7741,0.7741,0.7742,0.7742,0,0,0.6816,0.6957,0.697,0.7018,0.7123,0.718,0.7247,0.7334,0.7373,0.7447,0.7505,0.7609,0.7624,0.7678,0.7722,0.776,0.7793,0.7772,0.7775,0.7773,0.7871,0.7858,0.7865,0.7814,0.7816,0.7817,0.7863,0,0.6856,0.6978,0.7039,0.7135,0.7202,0.7255,0.7314,0.7384,0.7436,0.75,0.7558,0.763,0.7645,0.7677,0.7718,0.778,0.7814,0.7778,0.7869,0.7871,0.7845,0.7874,0.7861,0.7901,0.7871,0.7872,0.7873,0,0.6918,0.6992,0.7095,0.7192,0.7222,0.7274,0.7358,0.7419,0.75,0.7535,0.7594,0.7637,0.7709,0.7709,0.781,0.7784,0.7825,0.7861,0.7864,0.7875,0.7873,0.7885,0.7916,0.7921,0.7884,0.7883,0.7882,0,0.6904,0.7029,0.7107,0.7147,0.7262,0.7297,0.7347,0.7427,0.7475,0.7549,0.7582,0.7663,0.7707,0.7769,0.7833,0.7827,0.7927,0.7932,0.7958,0.7957,0.7977,0.7975,0.8014,0.8003,0.8003,0.8003,0.8003,0,0.6942,0.7003,0.7102,0.715,0.7219,0.7289,0.7355,0.7409,0.748,0.7539,0.759,0.7644,0.7725,0.7789,0.7839,0.7915,0.7934,0.7965,0.7977,0.796,0.7956,0.7988,0.7987,0.8004,0.8004,0.8004,0.8003,0,0.6938,0.7007,0.7095,0.7197,0.7224,0.7271,0.7358,0.7406,0.7461,0.7535,0.7556,0.7641,0.7719,0.7789,0.7892,0.7926,0.8003,0.8019,0.7976,0.7983,0.8005,0.8002,0.8066,0.8078,0.8058,0.8058,0.8058,0,0.6958,0.7006,0.7113,0.7156,0.7205,0.7274,0.7323,0.7393,0.7443,0.7538,0.7575,0.7657,0.7726,0.7848,0.7919,0.7999,0.8017,0.8034,0.8029,0.801,0.8017,0.8013,0.8019,0.8033,0.8033,0.8033,0.8033,0,0.6985,0.7017,0.7087,0.7169,0.7227,0.7294,0.7364,0.7396,0.7479,0.7532,0.7612,0.7666,0.7771,0.7852,0.7939,0.799,0.8025,0.8034,0.8044,0.8027,0.8,0.8015,0.7975,0.8032,0.8032,0.8032,0.8032,0.8032,0.6994,0.7039,0.7121,0.7197,0.7257,0.732,0.7371,0.7431,0.75,0.7591,0.7628,0.771,0.7789,0.791,0.7961,0.8026,0.8032,0.8047,0.8051,0.8053,0.805,0.7989,0.8042,0.8042,0.8042,0.8042,0.8042,0,0.7024,0.7079,0.7149,0.7244,0.7304,0.7332,0.741,0.7458,0.7529,0.76,0.7667,0.776,0.7838,0.7915,0.7997,0.8034,0.8053,0.8054,0.8052,0.8063,0.804,0.8023,0.8038,0.8038,0.8038,0.8038,0.8038,0.8038,0.7047,0.7124,0.7166,0.7273,0.7329,0.7409,0.7452,0.751,0.7568,0.7668,0.7734,0.7783,0.7857,0.7945,0.8018,0.8039,0.8066,0.8063,0.8088,0.8065,0.8065,0.8064,0.8049,0.8069,0.8069,0.8106,0.8106,0.8107]},{"header":{"parameterUnit":"m.s-1","parameterCategory":1,"la1":30.2991,"la2":30.254,"lo1":-89.0895,"lo2":-89.0444,"dy":0.0017,"dx":0.0017,"nx":28,"ny":28,"refTime":"2023-08-08T09:00:00:Z","depth":0,"parameterNumber":3,"parameterNumberName":"V-component_of_WINDS"},"data":[0,0,0,0,0,0,0,0,0,0,0,0,0,0,0,0,0,0,0,0,0,0,0,0,0,0,0,0,0,0,0,0,0,0,0,0,0,0,0,0,0,0,0,0,0,0,0,0,0,0,0,0,0,0,0,0,0,0,5.3878,5.3877,0,5.3827,5.3827,5.3826,5.3737,5.3736,5.3734,5.3732,5.3682,5.3682,5.3682,0,0,0,0,0,0,0,0,0,0,0,0,0,5.3899,5.3899,5.3878,5.3877,5.3877,5.3827,5.3827,5.3826,5.3738,5.3736,5.3734,5.3732,5.3682,5.3682,5.3682,0,0,0,0,0,0,0,0,0,0,0,0,0,5.3873,5.3899,5.3878,5.3827,5.3821,5.3828,5.3827,5.3826,5.3738,5.3736,5.3733,5.3731,5.3682,5.3682,5.3682,5.3735,0,0,5.3683,5.3683,0,0,0,0,0,0,0,0,5.3875,5.3873,5.3835,5.383,5.3824,5.3786,5.3815,5.3795,5.3739,5.377,5.3732,5.373,5.3719,5.3716,5.3712,5.3732,5.373,5.3683,5.3683,5.3684,5.3684,0,0,0,0,0,0,0,5.3877,5.3874,5.3858,5.3834,5.3828,5.3806,5.38,5.3811,5.3759,5.3767,5.376,5.3756,5.3715,5.3712,5.371,5.3729,5.3683,5.3683,5.3684,5.3684,5.379,5.3793,0,0,0,0,0,0,5.3886,5.3876,5.3859,5.3856,5.3844,5.3808,5.3801,5.3801,5.3759,5.375,5.3758,5.3752,5.3712,5.371,5.3708,5.3766,5.3684,5.3684,5.3684,5.3788,5.3791,5.3794,0,0,0,0,0,0,5.3887,5.3885,5.3861,5.3865,5.386,5.381,5.3811,5.3801,5.3798,5.3752,5.3742,5.3764,5.371,5.3707,5.3729,5.3763,5.3684,5.3684,5.3785,5.3789,5.3792,5.3884,0,0,0,0,0,0,5.3888,5.3886,5.3905,5.3866,5.386,5.3883,5.3813,5.3802,5.3798,5.379,5.3755,5.3746,5.3708,5.3729,5.3729,5.3762,5.3685,5.3781,5.3786,5.3791,5.3877,5.389,5.3901,0,0,0,0,0,5.3889,5.3933,5.3907,5.3905,5.3883,5.3885,5.3882,5.3837,5.3801,5.382,5.3791,5.3747,5.376,5.3732,5.3731,5.3765,5.3779,5.3785,5.3791,5.3872,5.3888,5.3901,0,0,0,0,0,0,5.3978,5.3927,5.3897,5.393,5.3913,5.387,5.3893,5.3855,5.3848,5.384,5.3784,5.3777,5.3806,5.3787,5.3757,5.3814,5.3762,5.3769,5.3824,5.3839,5.3851,5.3854,5.3685,0,0,0,0,0,5.4002,5.4008,5.3963,5.3996,5.3989,5.3943,5.3942,5.3909,5.3889,5.3881,5.3853,5.3836,5.3835,5.3836,5.3833,5.3875,5.3866,5.3898,5.391,5.392,5.3926,5.3946,5.396,5.3813,5.3813,5.3813,0,0,5.405,5.4023,5.403,5.4013,5.3996,5.4004,5.3937,5.3948,5.3953,5.3882,5.3901,5.388,5.3857,5.3888,5.3901,5.3874,5.3964,5.3928,5.3936,5.3936,5.3954,5.3968,5.398,5.3817,5.3817,5.3816,0,0,5.4143,5.4123,5.4148,5.4132,5.4107,5.4076,5.4082,5.4046,5.4029,5.4047,5.3994,5.4,5.4,5.3986,5.3979,5.4067,5.4027,5.4068,5.413,5.4151,5.4162,5.4172,5.4203,5.4215,5.4074,5.4074,5.4074,0,5.4206,5.4215,5.4166,5.418,5.4175,5.4111,5.4137,5.4124,5.4099,5.4097,5.4067,5.4067,5.4047,5.4074,5.4096,5.4092,5.4098,5.4071,5.4165,5.4174,5.4183,5.4212,5.4224,5.4079,5.4078,5.4078,5.4077,0,5.4295,5.4302,5.4326,5.4303,5.43,5.432,5.4275,5.4277,5.4245,5.4217,5.4236,5.421,5.4201,5.4205,5.4173,5.4228,5.4212,5.4175,5.4122,5.4203,5.4229,5.424,5.4086,5.4085,5.4083,5.4082,0,0,5.4441,5.4392,5.4401,5.439,5.4358,5.4363,5.438,5.4371,5.4375,5.436,5.4373,5.4376,5.4341,5.4333,5.4299,5.4317,5.4389,5.4277,5.4276,5.4299,5.4447,5.4475,5.4489,5.4362,5.4364,5.4365,5.4449,0,5.4526,5.4553,5.4509,5.4546,5.4552,5.4492,5.4507,5.449,5.4465,5.4467,5.4439,5.4441,5.4395,5.439,5.4405,5.4377,5.4418,5.437,5.4374,5.4374,5.4381,5.4503,5.4533,5.4613,5.4459,5.4461,5.4462,0,5.4629,5.4619,5.4656,5.4622,5.4623,5.4637,5.4626,5.4628,5.4607,5.4587,5.4579,5.4539,5.4554,5.4504,5.4524,5.4493,5.4492,5.4478,5.448,5.4478,5.4423,5.4504,5.4637,5.4649,5.4478,5.4477,5.4475,0,5.4732,5.4728,5.475,5.4742,5.4703,5.4715,5.4699,5.4675,5.4672,5.4662,5.466,5.4653,5.4648,5.4643,5.4602,5.457,5.4627,5.4574,5.4612,5.4613,5.4626,5.4626,5.4761,5.4627,5.4626,5.4626,5.4626,0,5.4831,5.4856,5.4795,5.4809,5.4835,5.4786,5.4813,5.4791,5.4771,5.4779,5.4728,5.4737,5.4682,5.4686,5.4654,5.4675,5.4674,5.4659,5.465,5.4663,5.4665,5.4661,5.4654,5.4629,5.4629,5.4628,5.4627,0,5.495,5.491,5.493,5.4891,5.4882,5.4903,5.487,5.4881,5.4853,5.4864,5.4864,5.482,5.4822,5.478,5.4773,5.4752,5.4787,5.4769,5.4794,5.4788,5.4828,5.4825,5.4965,5.4981,5.4838,5.4839,5.484,0,5.5016,5.5033,5.4997,5.4998,5.4985,5.4989,5.4986,5.4938,5.4937,5.4915,5.4929,5.4926,5.492,5.4925,5.4893,5.4887,5.4868,5.4917,5.4867,5.4879,5.4868,5.4868,5.4869,5.4928,5.493,5.4931,5.4932,0,5.5136,5.5116,5.5114,5.5105,5.5103,5.5094,5.5081,5.5086,5.5033,5.5035,5.5036,5.5032,5.5025,5.5023,5.5011,5.4995,5.4955,5.4949,5.4957,5.4971,5.4985,5.4977,5.4823,5.4946,5.4944,5.4943,5.4943,5.4942,5.523,5.5243,5.522,5.5219,5.5205,5.5194,5.5203,5.5176,5.5175,5.5165,5.5137,5.5143,5.5121,5.5102,5.5089,5.5093,5.5068,5.5081,5.5084,5.5087,5.5095,5.4985,5.5091,5.509,5.509,5.509,5.5089,0,5.5348,5.533,5.533,5.5314,5.5314,5.5276,5.5261,5.5263,5.5268,5.5252,5.5248,5.5249,5.5246,5.5214,5.5208,5.5217,5.5199,5.5217,5.5216,5.5213,5.5117,5.511,5.5232,5.5232,5.5232,5.5232,5.5232,5.5232,5.5409,5.5429,5.5407,5.5419,5.5401,5.5406,5.54,5.539,5.5377,5.538,5.5378,5.5357,5.5334,5.5326,5.5322,5.5312,5.5312,5.5337,5.5322,5.5233,5.5219,5.5206,5.5199,5.5337,5.5338,5.5416,5.5417,5.5418]}]]